Date,TemperatureHighF,TemperatureAvgF,TemperatureLowF,DewpointHighF,DewpointAvgF,DewpointLowF,HumidityHigh,HumidityAvg,HumidityLow,PressureMaxIn,PressureMinIn,WindSpeedMaxMPH,WindSpeedAvgMPH,GustSpeedMaxMPH,PrecipitationSumIn
2013-1-1,37.7,34.3,26.2,29.0,22.9,14.0,71,61,51,29.92,29.76,27,8,27,0.04
2013-1-2,24.9,23.2,19.7,16.0,12.9,8.0,63,61,57,30.09,30.04,21,6,21,0.00
2013-1-3,25.9,18.1,9.3,16.0,5.5,0.0,67,54,40,30.16,30.03,21,5,21,0.00
2013-1-4,37.2,32.2,24.0,28.0,22.9,16.0,76,67,55,30.03,29.87,27,7,27,0.00
2013-1-5,42.1,33.7,24.7,24.0,22.8,21.0,86,63,41,30.28,29.91,24,5,24,0.02
2013-1-6,40.5,33.7,25.5,36.0,30.7,21.0,96,87,77,30.25,29.98,15,3,22,0.02
2013-1-7,39.7,32.9,24.6,32.0,28.9,24.0,99,84,66,30.44,29.99,24,4,24,0.02
2013-1-8,44.6,40.4,31.6,38.0,35.2,31.0,97,81,63,30.44,30.34,23,5,24,0.00
2013-1-9,46.3,38.9,26.8,44.0,36.8,28.0,100,92,72,30.43,30.08,28,3,28,0.00
2013-1-10,46.2,41.1,29.9,37.0,25.6,23.0,73,54,39,30.54,30.11,26,7,30,0.00
2013-1-11,41.6,36.1,29.4,38.0,30.5,23.0,97,79,66,30.53,30.24,12,2,12,0.12
2013-1-12,43.7,41.4,38.9,44.0,41.1,38.0,100,98,95,30.27,30.16,11,2,12,0.03
2013-1-13,50.2,46.3,42.2,50.0,46.4,42.0,100,100,100,30.22,30.08,11,2,14,0.02
2013-1-14,53.2,50.4,42.8,53.0,48.8,33.0,100,95,59,30.28,30.00,21,4,21,0.02
2013-1-15,42.8,39.1,37.4,38.0,36.6,33.0,99,90,76,30.32,30.22,13,3,13,0.15
2013-1-16,41.0,38.4,36.0,41.0,38.1,35.0,100,99,88,30.26,29.76,16,3,16,0.66
2013-1-17,42.4,37.6,32.8,37.0,32.7,26.0,100,82,62,30.11,29.89,22,5,22,0.00
2013-1-18,34.3,23.8,15.7,28.0,11.7,0.0,97,59,33,30.51,30.02,30,7,30,0.00
2013-1-19,47.9,40.4,16.6,45.0,33.4,14.0,87,75,68,30.45,29.99,31,6,31,0.04
2013-1-20,51.0,45.4,30.8,46.0,35.6,14.0,89,69,41,30.00,29.64,26,8,26,0.00
2013-1-21,30.9,27.9,24.3,29.0,16.1,8.0,99,61,40,30.14,29.79,24,4,26,0.00
2013-1-22,28.7,22.5,15.3,29.0,13.2,0.0,99,66,37,30.09,29.74,30,8,30,0.02
2013-1-23,16.4,13.1,9.2,4.0,-1.6,-6.0,62,47,39,30.18,30.08,32,9,32,0.00
2013-1-24,19.4,12.7,6.3,0.0,-3.6,-6.0,53,43,32,30.22,30.04,28,10,29,0.00
2013-1-25,23.2,17.4,10.1,16.0,1.0,-6.0,83,46,33,30.32,30.06,25,6,25,0.00
2013-1-26,25.5,19.7,14.6,18.0,10.5,0.0,90,65,36,30.24,29.99,30,8,30,0.00
2013-1-27,30.4,20.7,14.4,8.0,4.7,0.0,62,47,30,30.48,30.22,28,7,28,0.00
2013-1-28,32.2,24.6,12.4,32.0,16.9,4.0,99,73,31,30.47,30.02,10,2,11,0.00
2013-1-29,38.3,34.7,32.1,38.0,34.6,32.0,100,99,94,30.24,30.01,9,1,9,0.14
2013-1-30,56.9,47.1,34.6,56.0,46.9,35.0,100,99,95,30.20,29.63,26,4,26,0.07
2013-1-31,55.9,47.1,33.5,56.0,40.4,16.0,100,78,45,29.66,29.14,37,10,37,0.57
2013-2-1,33.5,29.9,23.9,18.0,12.3,8.0,58,45,35,30.12,29.64,29,10,29,0.00
2013-2-2,32.6,26.3,20.5,28.0,13.8,4.0,93,57,41,30.29,30.08,24,7,25,0.00
2013-2-3,34.2,27.2,22.0,26.0,23.7,18.0,95,85,67,30.08,29.69,24,6,24,0.00
2013-2-4,26.7,24.6,23.3,24.0,19.1,16.0,90,78,58,29.83,29.72,26,8,26,0.00
2013-2-6,38.6,33.5,28.7,32.0,23.4,11.0,100,67,42,30.31,30.01,22,6,22,0.03
2013-2-7,29.9,25.8,21.6,24.0,11.6,4.0,80,52,34,30.55,30.30,18,4,18,0.00
2013-2-8,33.3,32.1,29.1,33.0,30.1,24.0,100,91,78,30.50,29.39,38,11,41,0.10
2013-2-9,19.2,17.3,14.7,21.0,17.0,14.0,97,95,93,30.16,30.04,27,10,27,0.00
2013-2-10,31.7,21.8,13.4,26.0,17.9,11.0,97,84,66,30.42,30.15,20,5,20,0.09
2013-2-11,46.4,35.8,18.3,46.0,35.7,18.0,100,98,92,30.40,29.65,19,4,21,0.71
2013-2-12,45.4,40.1,32.6,44.0,32.4,26.0,100,75,51,29.93,29.64,27,6,28,0.01
2013-2-13,41.2,33.9,28.3,31.0,25.9,23.0,93,73,53,29.92,29.69,13,3,13,0.00
2013-2-14,40.6,34.1,29.2,36.0,29.4,24.0,100,84,52,30.06,29.71,20,3,21,0.16
2013-2-15,47.5,38.2,28.2,40.0,35.1,28.0,100,89,61,30.10,29.98,14,2,14,0.00
2013-2-16,37.9,33.0,27.4,35.0,32.4,28.0,100,96,84,29.98,29.64,23,5,23,0.11
2013-2-17,34.7,25.1,19.3,33.0,19.4,8.0,97,78,42,29.68,29.29,43,12,43,0.20
2013-2-18,32.0,24.2,16.7,11.0,7.5,4.0,56,44,32,30.20,29.67,34,10,34,0.01
2013-2-19,45.9,37.2,27.2,46.0,29.9,11.0,100,75,44,30.21,29.64,21,4,21,0.86
2013-2-20,42.1,34.0,27.0,42.0,23.9,11.0,100,67,42,29.82,29.60,30,8,30,0.03
2013-2-21,33.7,29.0,25.8,21.0,16.1,14.0,66,56,44,30.15,29.80,28,9,28,0.01
2013-2-22,36.9,33.1,29.1,29.0,25.4,18.0,79,72,63,30.40,30.14,25,5,25,0.00
2013-2-23,37.7,35.1,32.0,37.0,32.2,26.0,100,89,79,30.37,29.87,18,4,18,0.36
2013-2-24,44.1,38.7,32.7,44.0,38.8,33.0,100,100,98,29.88,29.60,30,8,30,1.01
2013-2-25,39.9,33.5,27.4,35.0,30.4,26.0,100,88,61,30.28,29.87,19,4,19,0.04
2013-2-26,41.0,34.4,25.1,40.0,30.6,26.0,100,86,61,30.38,30.16,16,3,16,0.00
2013-2-27,43.5,41.2,38.1,44.0,41.1,36.0,100,99,91,30.17,29.60,31,8,31,0.97
2013-2-28,47.9,40.4,37.0,42.0,39.2,37.0,100,96,77,29.69,29.54,16,2,16,0.00
2013-3-1,41.1,38.0,35.6,38.0,34.9,33.0,100,89,73,29.70,29.53,22,5,23,0.01
2013-3-2,42.2,36.9,34.8,33.0,30.3,29.0,89,76,61,29.71,29.67,17,5,17,0.00
2013-3-3,40.6,36.4,33.7,32.0,30.8,29.0,91,79,65,29.64,29.60,14,4,14,0.00
2013-3-4,40.0,35.3,30.3,32.0,26.4,24.0,95,70,53,29.73,29.59,28,9,28,0.00
2013-3-5,41.4,36.3,30.5,36.0,30.8,24.0,99,80,69,30.08,29.73,28,7,28,0.00
2013-3-6,40.9,37.8,31.2,38.0,35.5,31.0,100,90,79,30.08,29.92,31,9,31,0.02
2013-3-7,37.1,35.4,34.0,36.0,35.3,33.0,99,98,92,29.94,29.84,36,10,40,2.85
2013-3-8,41.7,35.6,33.2,37.0,34.6,32.0,100,95,71,30.08,29.84,34,9,36,1.49
2013-3-9,39.8,36.8,33.7,33.0,32.1,31.0,94,83,72,30.35,30.06,31,7,32,0.01
2013-3-10,42.6,37.7,33.0,36.0,33.1,32.0,96,84,71,30.43,30.34,14,4,14,0.00
2013-3-11,46.2,40.3,36.0,41.0,37.7,32.0,98,90,81,30.38,30.22,16,3,16,0.00
2013-3-12,50.7,46.1,41.7,50.5,45.8,41.0,100,99,94,30.24,29.81,20,5,20,0.90
2013-3-13,53.6,45.4,34.3,53.5,39.1,26.0,100,80,51,29.83,29.74,18,6,18,0.50
2013-3-14,36.3,32.2,25.8,31.0,20.8,8.0,90,63,43,29.85,29.73,32,8,32,0.00
2013-3-15,38.2,30.7,22.9,31.0,17.8,8.0,75,57,37,29.90,29.70,27,8,30,0.00
2013-3-16,38.6,34.7,28.7,31.0,20.8,11.0,83,57,32,29.90,29.71,24,4,24,0.00
2013-3-17,38.9,32.7,26.9,31.0,20.3,11.0,90,61,38,30.32,29.90,22,5,24,0.00
2013-3-18,34.2,29.8,21.2,26.0,16.8,8.0,71,56,46,30.48,30.26,18,5,18,0.00
2013-3-19,44.6,37.3,31.7,45.0,36.6,26.0,100,96,71,30.27,29.51,29,10,29,0.87
2013-3-20,40.0,34.7,29.8,33.0,25.6,21.0,96,69,45,29.87,29.67,31,8,31,0.00
2013-3-21,40.6,33.7,26.9,32.0,28.9,24.0,100,83,56,29.87,29.61,21,4,21,0.00
2013-3-22,39.3,33.3,27.6,31.0,26.1,21.0,100,76,47,29.78,29.61,24,7,24,0.07
2013-3-23,42.9,36.7,30.9,26.0,22.4,18.0,74,55,37,29.81,29.66,35,10,35,0.00
2013-3-24,44.1,36.6,29.2,31.0,25.5,21.0,93,64,45,29.87,29.78,21,5,21,0.00
2013-3-25,43.5,37.0,29.0,37.0,31.7,28.0,97,81,63,29.80,29.47,26,6,28,0.00
2013-3-26,47.6,39.2,33.8,35.0,30.3,24.0,93,71,42,29.81,29.47,26,6,26,0.02
2013-3-27,49.2,41.2,29.9,36.0,28.6,23.0,85,61,38,29.89,29.79,25,5,25,0.00
2013-3-28,46.4,40.8,37.4,39.0,34.8,29.0,97,80,53,30.06,29.86,26,6,26,0.04
2013-3-29,54.1,43.9,35.6,41.0,35.8,32.0,88,73,49,30.08,30.03,18,4,18,0.01
2013-3-30,51.6,43.9,32.3,37.0,33.8,29.0,94,68,46,30.14,30.06,18,4,19,0.00
2013-3-31,53.7,43.2,30.2,44.0,36.2,31.0,98,78,48,30.18,29.79,23,3,23,0.09
2013-4-1,53.1,46.2,36.7,47.5,42.0,21.0,100,86,46,29.83,29.60,32,8,32,0.30
2013-4-2,41.9,36.0,30.4,23.0,17.2,11.0,57,45,31,30.01,29.83,30,8,30,0.00
2013-4-3,44.6,37.5,31.9,18.0,16.1,14.0,52,40,29,30.19,29.98,32,10,34,0.00
2013-4-4,42.8,37.3,29.7,35.0,23.1,16.0,82,56,39,30.35,30.15,23,7,23,0.00
2013-4-5,49.1,42.4,39.4,45.0,38.7,32.0,97,86,70,30.15,29.70,20,3,20,0.09
2013-4-6,43.9,38.0,32.8,35.0,21.5,8.0,82,53,25,30.39,29.88,30,6,32,0.00
2013-4-7,48.4,41.4,28.7,44.0,34.2,26.0,97,77,52,30.39,30.12,19,4,20,0.00
2013-4-8,59.8,50.3,43.6,47.0,43.8,40.0,93,79,56,30.17,30.03,17,4,17,0.00
2013-4-9,68.2,51.1,44.5,52.0,46.3,41.0,100,85,53,30.16,29.90,20,4,24,0.00
2013-4-10,58.8,47.9,44.6,48.0,44.7,43.0,99,89,65,30.08,29.90,22,4,22,0.32
2013-4-11,51.2,46.0,44.0,46.0,42.1,36.0,100,87,61,30.17,29.84,20,4,20,0.06
2013-4-12,44.3,42.2,38.3,43.0,37.1,31.0,100,83,61,30.19,29.71,28,9,29,1.11
2013-4-13,47.9,41.9,39.2,42.0,39.6,38.0,100,91,73,29.99,29.70,33,7,34,0.09
2013-4-14,52.5,46.8,40.1,44.0,37.6,28.0,97,72,42,30.24,29.98,22,5,22,0.00
2013-4-15,51.0,44.2,37.4,42.0,36.4,29.0,93,74,56,30.47,30.24,15,4,15,0.00
2013-4-16,55.9,48.1,37.2,49.0,43.8,36.0,99,85,69,30.48,30.19,20,4,20,0.00
2013-4-17,62.0,51.6,38.6,53.0,44.4,37.0,100,79,40,30.38,30.15,21,4,22,0.05
2013-4-18,54.2,46.6,35.8,47.5,40.8,36.0,100,81,62,30.47,30.23,17,4,17,0.00
2013-4-19,68.3,58.8,49.8,62.5,56.9,47.5,100,94,80,30.23,29.82,28,5,29,0.00
2013-4-20,60.7,52.6,45.4,60.5,49.6,39.0,100,89,72,30.24,29.74,29,6,29,0.39
2013-4-21,48.0,42.2,33.6,40.0,27.4,24.0,81,56,42,30.70,30.24,23,5,24,0.01
2013-4-22,48.4,41.3,31.3,38.0,33.8,29.0,95,74,51,30.76,30.58,23,6,23,0.00
2013-4-23,45.4,43.4,40.4,45.0,42.4,36.0,100,96,79,30.58,30.02,26,6,26,1.09
2013-4-24,54.5,48.2,43.2,50.5,45.9,43.0,100,92,76,30.03,29.83,37,10,38,0.64
2013-4-25,59.6,51.3,40.2,54.5,46.2,38.0,98,84,46,30.29,29.95,24,4,26,0.02
2013-4-26,53.2,46.8,35.8,45.0,41.4,36.0,100,83,63,30.47,30.29,14,4,14,0.00
2013-4-27,55.8,47.6,36.3,47.0,38.7,32.0,100,74,43,30.48,30.38,11,2,13,0.00
2013-4-28,61.1,49.7,37.3,48.0,42.6,37.0,99,79,48,30.41,30.32,14,2,14,0.00
2013-4-29,61.0,50.5,41.5,50.0,41.3,31.0,100,75,32,30.35,30.29,12,2,12,0.00
2013-4-30,58.2,49.0,37.0,47.5,36.8,28.0,100,67,34,30.42,30.30,12,3,12,0.00
2013-5-1,57.6,49.4,38.8,49.0,45.3,38.0,98,86,70,30.52,30.41,16,3,17,0.00
2013-5-2,68.9,52.9,39.9,50.5,43.8,39.0,100,76,35,30.51,30.41,12,2,12,0.00
2013-5-3,51.2,46.8,40.6,45.0,42.6,40.0,98,86,74,30.52,30.38,20,4,20,0.00
2013-5-4,52.7,47.0,38.6,45.0,40.6,37.0,100,80,58,30.40,30.34,20,4,20,0.00
2013-5-5,54.9,47.6,40.8,46.0,42.9,40.0,99,85,60,30.35,30.30,20,5,20,0.00
2013-5-6,54.9,47.2,43.7,50.0,46.1,43.0,100,96,82,30.35,30.23,12,3,12,0.00
2013-5-7,64.6,54.7,46.8,59.0,53.3,47.0,100,96,81,30.26,30.19,11,2,13,0.00
2013-5-8,62.8,57.3,53.8,60.5,56.7,54.0,100,98,87,30.26,30.10,16,4,17,0.03
2013-5-9,66.3,58.2,53.5,64.0,57.3,53.5,100,97,87,30.10,29.94,14,3,14,0.02
2013-5-10,73.3,61.6,53.3,60.0,56.0,53.0,100,84,50,30.03,29.94,18,4,18,0.00
2013-5-11,66.8,59.7,54.3,61.0,58.4,53.5,100,96,77,30.02,29.78,19,3,20,0.60
2013-5-12,60.9,57.7,51.5,59.5,54.8,37.0,100,91,55,29.87,29.67,22,4,22,0.19
2013-5-13,54.7,50.4,40.4,42.0,37.3,31.0,93,62,46,30.05,29.87,25,5,25,0.00
2013-5-14,55.4,50.1,42.7,43.0,36.2,31.0,74,59,41,30.10,30.02,23,5,25,0.00
2013-5-15,61.3,53.4,42.4,56.5,46.2,36.0,97,78,44,30.12,29.75,22,4,22,0.02
2013-5-16,69.5,59.6,52.4,56.0,52.2,49.0,100,78,48,29.84,29.72,25,5,27,0.00
2013-5-17,65.4,57.1,48.9,50.5,45.8,41.0,93,68,42,30.27,29.83,23,4,23,0.00
2013-5-18,65.8,56.0,44.4,54.0,49.2,43.0,99,79,54,30.37,30.27,16,3,17,0.00
2013-5-19,67.3,58.6,50.3,55.0,50.3,47.0,98,76,49,30.41,30.30,17,3,18,0.10
2013-5-20,66.2,59.7,56.2,62.0,58.6,55.0,100,96,85,30.31,30.00,17,4,17,0.15
2013-5-21,72.6,61.9,54.4,67.0,60.4,54.5,100,95,80,30.03,29.92,21,4,21,0.01
2013-5-22,69.5,59.7,52.3,65.0,58.3,52.0,100,95,83,30.02,29.96,21,3,23,0.01
2013-5-23,72.5,65.2,61.1,67.5,63.9,61.0,100,96,84,30.02,29.93,21,5,23,0.14
2013-5-24,64.3,61.9,54.6,64.5,61.9,54.5,100,100,100,29.94,29.74,25,4,25,1.99
2013-5-25,54.6,51.4,44.4,54.5,51.0,43.0,100,98,91,29.79,29.72,26,7,26,0.57
2013-5-26,59.7,50.5,42.9,44.0,41.6,39.0,99,73,47,30.15,29.77,26,8,28,0.00
2013-5-27,65.3,56.7,48.6,50.5,46.0,41.0,85,68,49,30.22,30.14,22,6,22,0.00
2013-5-28,70.8,58.2,45.5,57.5,52.0,44.0,100,81,52,30.30,30.22,11,2,11,0.00
2013-5-29,63.5,59.3,56.4,62.0,58.7,56.5,100,98,89,30.28,30.09,19,4,19,0.66
2013-5-30,77.3,65.7,59.4,69.0,62.6,59.5,100,90,71,30.15,30.08,20,4,20,0.17
2013-5-31,85.3,70.0,59.9,70.0,63.5,59.5,99,81,53,30.15,30.03,19,4,19,0.00
2013-6-1,75.7,65.5,60.4,66.7,62.2,59.5,98,89,72,30.07,29.99,24,6,24,0.00
2013-6-2,74.7,66.9,62.0,67.0,63.7,61.0,99,90,75,30.02,29.90,29,4,29,0.00
2013-6-3,66.1,63.9,62.0,66.0,63.8,62.0,100,100,96,29.93,29.85,26,4,26,2.63
2013-6-4,71.1,61.8,52.6,63.0,50.9,45.0,100,70,42,30.13,29.85,22,4,22,0.00
2013-6-5,69.2,59.5,48.3,53.5,49.2,45.0,99,71,43,30.24,30.12,12,2,12,0.00
2013-6-6,69.1,61.4,51.5,59.0,54.5,50.5,98,79,61,30.26,30.14,14,2,14,0.00
2013-6-7,65.6,58.8,56.4,65.5,57.9,53.0,100,97,81,30.16,29.81,23,6,24,1.80
2013-6-8,67.7,64.5,60.0,66.7,63.0,59.5,100,95,83,30.06,29.60,26,6,26,0.20
2013-6-9,73.6,66.0,59.0,63.0,60.4,58.0,100,83,61,30.22,30.06,15,4,16,0.00
2013-6-10,70.9,62.3,57.5,62.5,59.5,57.0,100,91,70,30.25,30.04,21,4,21,0.72
2013-6-11,72.4,64.9,57.2,68.5,64.3,57.0,100,98,86,30.04,29.60,22,5,22,1.30
2013-6-12,70.6,62.9,55.5,60.0,57.0,54.0,100,82,59,29.85,29.61,27,8,27,0.00
2013-6-13,70.0,59.4,54.1,60.0,55.4,53.5,98,87,63,29.88,29.65,18,4,20,0.27
2013-6-14,67.1,56.8,52.7,56.0,53.7,51.0,100,90,66,29.80,29.58,26,5,26,1.25
2013-6-15,76.8,66.2,57.0,59.0,54.0,45.0,98,68,36,30.01,29.79,15,5,16,0.00
2013-6-16,75.7,66.5,59.8,63.0,59.6,51.0,100,80,47,30.01,29.82,16,4,16,0.00
2013-6-17,77.6,68.9,61.6,66.3,63.7,61.0,99,84,66,29.98,29.84,20,4,22,0.01
2013-6-18,76.3,66.0,59.6,70.0,62.9,59.5,100,90,69,29.98,29.91,15,2,17,0.01
2013-6-19,71.1,63.7,57.4,61.0,54.8,48.0,99,75,47,30.21,29.89,20,4,21,0.02
2013-6-20,73.2,64.2,53.0,61.0,55.8,52.0,100,76,50,30.35,30.21,14,2,14,0.00
2013-6-21,72.8,66.3,60.8,58.0,53.8,49.0,85,65,49,30.34,30.28,20,5,23,0.00
2013-6-22,76.6,67.4,62.9,63.5,61.1,56.0,97,81,53,30.31,30.22,16,4,17,0.00
2013-6-23,76.3,69.5,64.0,69.3,65.9,63.5,100,89,71,30.25,30.12,21,5,22,0.00
2013-6-24,77.5,71.4,67.0,71.7,68.9,66.3,100,92,78,30.13,29.94,22,5,22,0.00
2013-6-25,80.1,73.3,68.5,70.0,68.2,66.0,96,84,70,29.97,29.83,16,4,17,0.00
2013-6-26,81.1,73.8,67.7,72.3,69.7,67.0,99,87,72,29.90,29.78,17,3,18,0.00
2013-6-27,74.2,68.7,66.0,71.3,68.0,66.0,100,98,88,29.90,29.81,15,2,15,0.00
2013-6-28,71.6,69.6,67.9,71.7,69.6,68.0,100,100,100,29.82,29.63,19,3,22,0.49
2013-6-29,74.5,71.0,68.7,74.0,70.7,68.5,100,99,94,29.83,29.59,16,2,17,0.72
2013-6-30,76.0,72.0,69.2,73.7,71.2,69.3,100,97,86,30.03,29.82,17,2,17,0.06
2013-7-1,80.1,74.0,70.3,77.0,73.3,70.5,100,98,88,30.18,30.03,15,3,15,0.07
2013-7-2,80.6,75.5,72.0,78.0,74.4,71.7,100,97,90,30.28,30.17,19,3,19,0.06
2013-7-3,76.8,73.9,71.6,74.3,73.2,71.7,100,98,93,30.30,30.24,20,5,20,0.00
2013-7-4,79.6,74.6,71.9,77.0,73.8,72.0,100,97,89,30.28,30.19,19,5,19,0.00
2013-7-5,80.7,76.2,72.5,76.3,73.8,72.0,100,93,84,30.23,30.13,19,6,19,0.00
2013-7-6,81.9,76.9,71.5,76.0,73.7,71.3,100,90,80,30.15,30.03,15,3,15,0.00
2013-7-7,85.5,77.5,71.8,77.0,73.8,71.7,100,89,68,30.08,29.98,15,3,15,0.00
2013-7-8,79.4,75.2,71.8,73.7,72.3,71.0,100,91,81,30.10,29.98,20,4,20,0.00
2013-7-9,77.6,72.7,68.7,72.7,71.1,68.5,100,95,83,30.14,30.07,10,2,10,0.00
2013-7-10,82.3,76.2,71.9,77.7,74.4,71.7,100,95,79,30.12,29.89,14,3,14,0.00
2013-7-11,76.8,74.3,72.1,75.5,73.9,72.0,100,99,95,29.96,29.87,16,3,16,0.05
2013-7-12,73.8,71.4,68.3,73.0,70.2,66.3,100,96,85,30.22,29.95,17,3,17,0.00
2013-7-13,77.0,72.0,69.3,74.3,71.5,69.3,100,98,91,30.36,30.22,12,3,12,0.10
2013-7-14,85.5,77.9,73.0,78.3,75.4,73.0,100,93,78,30.35,30.24,14,3,14,0.01
2013-7-15,91.8,81.3,73.9,78.7,75.2,72.7,100,83,63,30.26,30.15,8,2,8,0.00
2013-7-16,89.8,80.2,71.9,74.3,71.6,67.0,100,77,53,30.21,30.13,15,3,15,0.00
2013-7-17,83.3,76.6,69.0,76.0,70.6,68.0,100,84,62,30.24,30.10,9,2,9,0.00
2013-7-18,88.9,79.2,74.0,77.0,73.4,71.0,99,85,59,30.11,30.02,9,3,9,0.00
2013-7-19,85.0,79.1,74.8,78.0,76.3,74.0,100,93,80,30.03,29.83,9,4,9,0.00
2013-7-20,80.8,77.8,75.0,76.0,75.3,74.0,99,93,84,29.86,29.74,9,5,9,0.00
2013-7-21,84.3,75.1,68.5,75.0,71.4,67.0,100,90,63,30.05,29.85,9,2,9,0.50
2013-7-22,77.3,72.8,71.2,72.0,70.4,69.0,100,93,82,30.06,29.93,9,3,9,0.00
2013-7-23,84.2,77.3,72.3,79.0,75.6,72.0,100,96,82,29.94,29.62,9,3,9,0.05
2013-7-24,84.3,77.8,72.8,76.0,72.7,65.0,100,86,67,29.95,29.63,9,3,9,0.00
2013-7-25,73.1,65.7,63.0,66.0,61.7,59.0,99,88,77,30.10,29.94,9,4,9,0.08
2013-7-26,69.2,66.6,63.6,69.0,66.2,63.0,100,100,99,30.08,29.90,9,3,9,0.70
2013-7-27,80.0,73.4,67.4,72.0,69.6,67.0,100,90,69,30.13,30.06,9,3,9,0.00
2013-7-28,80.5,74.1,68.6,76.0,72.2,68.0,100,95,85,30.09,29.99,9,2,9,0.15
2013-7-29,82.7,75.1,68.7,76.0,72.3,68.0,100,92,78,30.10,30.04,9,2,9,0.00
2013-7-30,79.7,72.8,66.8,72.0,65.8,58.0,100,81,51,30.15,30.07,9,4,9,0.00
2013-7-31,80.5,71.5,63.1,66.0,63.0,57.0,97,77,48,30.18,30.11,9,2,9,0.00
2013-8-1,77.6,71.3,64.5,70.0,66.2,63.0,100,86,66,30.13,29.96,14,2,14,0.03
2013-8-2,79.4,71.5,65.4,72.0,68.3,64.0,100,91,73,29.96,29.86,17,3,17,0.11
2013-8-3,73.7,71.1,68.8,71.0,67.8,66.0,97,90,80,29.96,29.86,20,4,20,0.02
2013-8-4,78.6,69.1,60.6,67.0,61.5,57.0,97,79,53,29.93,29.82,22,4,24,0.00
2013-8-5,75.3,65.9,57.1,60.0,54.1,47.0,96,69,39,30.10,29.92,20,5,20,0.00
2013-8-6,75.2,65.3,53.1,60.0,55.4,51.0,98,73,48,30.23,30.09,11,1,11,0.00
2013-8-7,75.6,66.2,54.5,68.0,56.9,50.0,100,75,42,30.25,30.19,11,2,13,0.00
2013-8-8,78.3,72.0,66.3,72.0,66.7,59.0,97,84,72,30.20,30.11,18,3,19,0.01
2013-8-9,75.5,73.1,70.0,74.0,72.2,69.0,100,98,95,30.14,29.85,20,4,20,0.08
2013-8-10,81.1,74.0,66.6,72.0,67.1,59.0,100,81,49,30.07,29.85,20,5,20,0.00
2013-8-11,76.9,69.1,58.5,62.0,57.0,52.0,95,68,45,30.13,30.05,18,3,18,0.00
2013-8-12,75.5,70.2,63.5,70.0,66.0,62.0,99,88,75,30.11,29.98,11,2,12,0.00
2013-8-13,71.5,68.6,65.8,70.0,67.7,65.0,100,98,94,30.00,29.74,11,2,11,0.15
2013-8-14,73.4,68.0,63.6,67.0,58.7,53.0,100,75,50,30.01,29.72,23,5,23,0.00
2013-8-15,73.0,65.7,55.4,60.0,53.6,44.0,94,68,39,30.19,30.01,14,4,16,0.00
2013-8-16,77.8,69.4,59.8,64.0,58.8,48.0,98,72,38,30.27,30.17,15,2,15,0.00
2013-8-17,81.2,69.7,60.2,64.0,61.2,58.0,100,78,47,30.34,30.25,9,2,9,0.00
2013-8-18,74.9,66.0,58.9,68.0,62.0,59.0,100,89,66,30.34,30.14,9,1,9,0.11
2013-8-19,77.5,68.3,58.8,68.0,64.0,59.0,100,88,68,30.15,30.01,13,3,13,0.01
2013-8-20,83.2,73.7,66.3,70.0,66.0,63.0,97,79,54,30.16,30.02,13,3,13,0.00
2013-8-21,83.0,73.9,64.6,70.0,67.1,64.0,100,82,57,30.20,30.11,16,3,16,0.00
2013-8-22,76.0,72.2,69.9,72.0,70.6,68.0,100,95,85,30.12,29.91,23,4,23,0.00
2013-8-23,74.4,70.3,60.8,71.0,63.1,56.0,100,80,55,30.15,29.88,27,4,27,0.00
2013-8-24,71.2,64.7,51.8,61.0,54.0,49.0,96,71,47,30.39,30.15,21,2,21,0.00
2013-8-25,79.8,66.3,50.8,63.0,56.6,48.0,99,74,43,30.42,30.28,14,2,14,0.00
2013-8-26,72.2,69.6,67.9,68.0,65.5,62.0,95,88,80,30.28,29.96,22,5,22,0.00
2013-8-27,72.5,69.6,67.1,72.0,68.9,67.0,100,99,95,29.96,29.89,15,2,15,0.62
2013-8-28,81.5,70.6,65.6,73.0,68.0,65.0,100,93,70,30.01,29.90,13,2,13,0.00
2013-8-29,69.7,66.0,61.1,67.0,64.5,59.0,100,96,89,30.10,29.98,17,2,17,0.00
2013-8-30,72.1,66.1,57.4,69.0,63.8,57.0,100,94,84,30.07,29.92,17,4,19,0.00
2013-8-31,74.8,71.8,69.5,73.0,70.7,69.0,100,97,91,29.94,29.90,20,4,21,0.00
2013-9-1,72.6,72.2,71.9,72.0,71.3,71.0,99,98,97,29.93,29.90,12,3,12,0.14
2013-9-13,176.0,0.0,176.0,99.9,99.9,99.9,99,99,99,29.68,29.67,6,2,6,0.60
2013-9-16,176.0,0.0,176.0,99.9,99.9,99.9,99,98,98,30.11,30.11,13,5,13,0.00
2013-9-17,176.0,0.0,176.0,99.9,99.9,99.9,96,96,96,30.19,30.19,25,16,25,0.00
2013-9-18,66.6,63.6,59.9,53.0,49.2,46.0,78,60,49,30.25,30.23,12,4,12,0.00
2013-10-15,61.7,57.5,51.4,54.0,52.2,50.0,99,83,69,30.32,30.22,13,3,14,0.00
2013-10-16,60.5,56.5,51.2,60.0,56.2,51.0,100,99,97,30.22,29.96,14,2,14,0.00
2013-10-17,65.7,61.0,56.3,62.0,59.7,56.0,100,97,90,29.98,29.81,16,3,16,0.00
2013-10-18,67.3,61.9,49.1,64.0,56.3,47.0,100,85,55,29.99,29.71,23,4,23,0.03
2013-10-19,63.9,55.1,44.6,56.0,47.4,43.0,96,77,48,30.07,29.83,11,2,12,0.00
2013-10-20,60.7,55.6,41.0,59.0,46.5,37.0,97,74,42,30.08,29.77,25,4,25,0.02
2013-10-21,62.2,51.9,39.2,50.0,43.9,38.0,99,77,48,30.19,30.08,11,2,16,0.00
2013-10-22,65.6,57.5,45.7,57.0,52.2,45.0,99,84,65,30.09,29.78,13,2,13,0.01
2013-10-23,53.1,47.1,39.7,47.0,41.3,37.0,98,81,64,29.85,29.64,14,3,14,0.21
2013-10-24,51.6,46.0,40.8,42.0,35.0,28.0,98,68,42,29.96,29.68,23,6,23,0.00
2013-10-25,50.4,43.4,34.9,37.0,33.2,31.0,89,68,50,30.23,29.95,22,5,22,0.00
2013-10-26,56.6,46.2,31.4,45.0,37.7,29.0,100,75,54,30.24,29.94,25,4,26,0.00
2013-10-27,56.3,50.8,40.4,45.0,37.3,32.0,87,60,47,30.13,29.88,21,5,22,0.00
2013-10-28,56.6,46.4,32.4,43.0,37.0,31.0,97,72,50,30.37,30.13,24,4,24,0.00
2013-10-29,51.6,43.8,36.2,40.0,35.8,31.0,91,73,55,30.47,30.38,9,2,9,0.00
2013-10-30,56.1,44.7,33.2,49.0,42.1,32.0,99,91,74,30.42,30.26,12,1,12,0.01
2013-10-31,64.1,54.7,40.0,62.0,52.8,40.0,100,94,85,30.30,29.95,20,2,20,0.00
2013-11-1,70.5,64.5,60.6,66.0,62.2,58.0,99,93,84,29.95,29.63,40,6,40,0.05
2013-11-2,61.5,57.3,54.2,59.0,55.1,52.0,99,93,77,29.78,29.66,10,2,12,0.05
2013-11-3,55.3,45.5,36.8,53.0,41.0,26.0,99,85,61,30.40,29.76,24,6,24,0.01
2013-11-4,43.2,39.4,31.9,33.0,29.5,28.0,87,66,55,30.74,30.40,24,4,24,0.00
2013-11-5,47.9,39.0,31.9,37.0,32.9,29.0,97,80,60,30.76,30.58,9,2,9,0.00
2013-11-6,57.6,48.9,35.8,56.0,46.4,36.0,100,91,73,30.59,30.16,15,2,15,0.00
2013-11-7,62.2,56.4,44.5,62.0,55.4,40.0,100,97,84,30.16,29.74,26,5,28,1.01
2013-11-8,48.8,42.6,36.5,40.0,31.4,24.0,86,64,49,30.16,29.86,27,8,27,0.01
2013-11-9,44.2,39.0,34.4,37.0,28.7,24.0,89,66,46,30.27,30.13,22,5,22,0.00
2013-11-10,55.3,49.3,39.4,48.0,42.0,36.0,93,76,64,30.13,29.79,23,5,23,0.02
2013-11-11,53.6,46.7,40.8,47.0,35.1,29.0,77,64,45,30.16,29.93,30,8,31,0.02
2013-11-12,54.1,38.2,28.4,47.0,34.0,23.0,100,86,59,30.22,29.94,26,6,26,0.11
2013-11-13,36.2,30.0,24.8,23.0,20.0,16.0,83,65,46,30.32,30.20,22,6,22,0.00
2013-11-14,49.7,43.7,31.0,38.0,31.7,21.0,81,63,44,30.26,30.12,24,7,24,0.01
2013-11-15,55.9,51.2,46.1,49.0,43.0,33.0,94,75,60,30.29,30.20,20,5,20,0.00
2013-11-16,57.2,48.5,37.0,47.0,42.0,35.0,100,80,48,30.39,30.27,13,3,13,0.00
2013-11-17,56.3,48.5,36.4,56.0,47.8,36.0,100,98,86,30.38,29.95,11,2,11,0.25
2013-11-18,62.2,57.1,49.5,62.0,54.0,40.0,100,90,70,29.95,29.65,24,6,24,0.44
2013-11-19,49.9,41.6,32.1,40.0,27.6,23.0,71,57,43,30.32,29.72,29,8,29,0.02
2013-11-20,38.8,33.0,28.5,26.0,21.7,18.0,68,61,51,30.64,30.31,23,6,23,0.00
2013-11-21,47.4,36.8,27.5,37.0,29.3,21.0,93,74,55,30.68,30.46,13,1,13,0.00
2013-11-22,53.4,48.0,38.1,53.0,47.0,36.0,100,97,88,30.46,29.89,11,2,20,0.20
2013-11-23,50.6,43.6,32.7,50.0,31.6,18.0,100,64,37,29.93,29.83,27,8,27,0.01
2013-11-24,32.6,26.1,22.8,21.0,9.7,0.0,62,47,30,30.21,29.82,33,14,38,0.09
2013-11-25,39.2,25.5,18.8,32.0,8.8,4.0,78,48,28,30.43,30.21,31,6,31,0.00
2013-11-26,47.2,42.3,39.3,47.0,35.8,31.0,100,78,62,30.40,30.10,19,4,19,0.10
2013-11-27,60.2,53.4,40.6,60.0,53.2,40.0,100,100,96,30.10,29.21,32,8,32,2.10
2013-11-28,40.5,33.2,26.4,40.0,22.4,14.0,96,64,47,30.49,29.53,29,8,29,0.02
2013-11-29,34.2,28.8,24.0,21.0,16.5,14.0,71,58,46,30.76,30.48,17,4,17,0.00
2013-11-30,38.5,29.7,19.8,32.0,21.2,11.0,86,69,53,30.81,30.51,14,3,14,0.00
2013-12-1,48.8,44.3,38.3,49.0,41.3,31.0,100,89,73,30.52,30.02,18,3,18,0.02
2013-12-2,47.3,41.5,39.6,47.0,41.2,39.0,100,99,96,30.04,29.94,13,2,13,0.00
2013-12-3,43.9,40.0,35.3,41.0,38.8,35.0,99,96,85,29.99,29.87,22,5,22,0.01
2013-12-4,44.5,36.1,29.4,36.0,32.6,29.0,99,87,61,30.26,29.98,18,3,18,0.00
2013-12-5,54.7,45.3,29.2,54.0,45.0,29.0,100,99,95,30.27,30.02,10,2,10,0.00
2013-12-6,58.4,50.9,39.0,58.0,50.6,39.0,100,99,92,30.17,29.96,18,4,18,0.25
2013-12-7,41.0,36.0,29.0,39.0,33.0,23.0,100,89,68,30.50,30.09,20,6,20,0.30
2013-12-8,33.2,30.3,25.5,26.0,23.0,18.0,84,72,65,30.64,30.49,12,4,12,0.00
2013-12-9,46.4,39.8,31.9,46.0,39.1,26.0,100,97,73,30.53,29.92,25,6,25,0.42
2013-12-10,38.6,33.9,26.8,39.0,33.9,26.0,100,100,94,30.07,29.83,20,5,20,0.04
2013-12-11,33.1,29.4,25.4,26.0,23.6,21.0,96,78,63,30.31,30.06,22,7,22,0.03
2013-12-12,30.7,22.9,14.6,21.0,13.3,4.0,80,63,39,30.32,30.15,25,5,25,0.00
2013-12-13,31.5,26.2,19.1,21.0,15.4,11.0,80,61,49,30.39,30.06,25,6,25,0.00
2013-12-14,33.2,24.1,17.3,33.0,20.2,11.0,100,83,68,30.61,30.15,27,7,27,0.00
2013-12-15,51.2,36.9,28.9,51.0,35.9,24.0,100,96,76,30.16,29.38,34,8,34,1.03
2013-12-16,32.4,27.5,19.9,28.0,16.9,11.0,92,63,42,30.27,29.82,29,6,29,0.00
2013-12-17,42.1,26.5,13.2,42.0,22.7,8.0,100,83,57,30.31,29.90,19,5,19,0.10
2013-12-18,35.2,30.8,22.7,35.0,26.4,21.0,100,84,61,30.16,29.80,26,8,26,0.01
2013-12-19,45.5,38.1,29.6,38.0,31.6,24.0,83,76,66,30.19,30.04,22,5,22,0.00
2013-12-20,53.9,43.5,32.0,48.0,40.3,29.0,98,89,72,30.20,30.04,20,4,20,0.00
2013-12-21,56.4,52.2,47.5,55.0,50.2,47.0,100,94,84,30.10,29.99,22,6,22,0.00
2013-12-22,58.5,54.7,45.8,59.0,54.3,45.0,100,99,96,30.08,29.92,28,6,28,0.00
2013-12-23,56.8,45.5,38.4,56.0,45.3,38.0,100,99,96,30.12,30.00,18,3,18,0.49
2013-12-24,41.7,34.8,29.2,42.0,31.1,21.0,100,85,67,30.24,30.04,22,7,22,0.19
2013-12-25,29.2,22.1,18.5,24.0,14.6,8.0,82,70,57,30.60,30.23,24,6,24,0.00
2013-12-26,40.1,33.0,19.2,38.0,30.7,16.0,100,90,81,30.55,30.11,17,4,17,0.11
2013-12-27,35.7,30.9,25.4,28.0,24.7,23.0,91,77,58,30.34,30.25,15,4,15,0.01
2013-12-28,47.5,39.1,26.0,39.0,33.9,23.0,96,81,68,30.31,30.09,22,4,22,0.00
2013-12-29,56.6,44.1,37.1,56.0,43.2,36.0,100,97,84,30.12,29.36,31,4,31,1.07
2013-12-30,43.2,37.1,25.7,42.0,31.7,18.0,100,81,57,30.18,29.50,24,7,24,0.00
2013-12-31,27.0,23.7,19.1,23.0,15.1,11.0,82,67,53,30.23,30.08,22,6,22,0.00
2014-1-1,28.7,24.8,21.2,18.0,14.0,8.0,82,61,48,30.44,30.22,23,5,23,0.00
2014-1-2,32.0,28.4,25.2,32.0,26.9,16.0,99,93,63,30.40,29.71,22,6,22,0.00